Kimball, NE

1:35 AM MST on February 09, 2016 (GMT -0700)
Kimball Municipal-Arraj

Weather History for KIBM - January, 2012

Change the Weather History Date:

Tuesday, January 31, 2012

  Actual Average (KSNY) Record (KSNY)
Temperature  
Mean Temperature 36 °F 30 °F  
Max Temperature 48 °F 42 °F 65 °F (1954)
Min Temperature 24 °F 17 °F -23 °F (1951)
Degree Days  
Heating Degree Days 29 35  
Month to date heating degree days 1113  
Since 1 July heating degree days 3657  
Cooling Degree Days 0 0  
Month to date cooling degree days 0  
Year to date cooling degree days 0  
Moisture  
Dew Point 13 °F    
Average Humidity 42    
Maximum Humidity 67    
Minimum Humidity 19    
Precipitation  
Precipitation 0.00 in 0.01 in 0.14 in (2014)
Month to date precipitation 0.20  
Year to date precipitation 0.20  
Sea Level Pressure  
Sea Level Pressure 29.97 in    
Wind  
Wind Speed 14 mph (NW)    
Max Wind Speed 28 mph    
Max Gust Speed 36 mph    
Visibility 10 miles    
Events      
T = Trace of Precipitation, MM = Missing Value Source: NWS Daily Summary

Daily Weather History Graph

Daily Weather History Graph

Search for Another Location

Airport or City:

Trip Planner

Search our weather history database for the weather conditions in past years. The results will help you decide how hot, cold, wet, or windy it might be!

Date:

Astronomy

Jan. 31, 2012 Rise Set
Actual Time 8:07 AM CST 6:09 PM CST
Civil Twilight 7:37 AM CST 6:38 PM CST
Nautical Twilight 7:04 AM CST 7:12 PM CST
Astronomical Twilight 6:32 AM CST 7:44 PM CST
Moon 12:00 PM CST (1/31) 1:57 AM CST (1/31)
Length of Visible Light 11h 01m
Length of Day
10h 02m
First Quarter, 55% of the Moon is Illuminated
Jan 31
First Quarter
Feb 7
Full
Feb 14
Last Quarter
Feb 21
New
Feb 29
First Quarter

Hourly Weather History & Observations

Time (CST) Temp. Windchill Dew Point Humidity Pressure Visibility Wind Dir Wind Speed Gust Speed Precip Events Conditions
12:15 AM 32.4 °F 23.5 °F 18.9 °F 58% 29.87 in 10.0 mi WNW 11.5 mph - N/A   Clear
12:35 AM 32.0 °F 22.1 °F 19.0 °F 59% 29.87 in 10.0 mi WNW 13.8 mph - N/A   Clear
12:55 AM 31.3 °F 20.3 °F 18.9 °F 60% 29.87 in 10.0 mi WNW 16.1 mph - N/A   Clear
1:15 AM 32.5 °F 21.5 °F 18.5 °F 56% 29.87 in 10.0 mi WNW 17.3 mph - N/A   Clear
1:35 AM 31.5 °F 20.5 °F 17.8 °F 57% 29.88 in 10.0 mi West 16.1 mph - N/A   Clear
1:55 AM 32.0 °F 20.5 °F 18.0 °F 56% 29.88 in 10.0 mi West 18.4 mph - N/A   Clear
2:15 AM 34.7 °F 23.4 °F 19.0 °F 53% 29.88 in 10.0 mi WNW 20.7 mph - N/A   Clear
2:35 AM 36.0 °F 24.2 °F 17.6 °F 47% 29.88 in 10.0 mi WNW 24.2 mph 29.9 mph N/A   Clear
2:55 AM 36.1 °F 23.7 °F 15.3 °F 43% 29.89 in 10.0 mi WNW 27.6 mph 35.7 mph N/A   Clear
3:15 AM 35.4 °F 24.3 °F 15.1 °F 43% 29.90 in 10.0 mi WNW 20.7 mph 28.8 mph N/A   Clear
3:35 AM 34.2 °F 22.6 °F 15.6 °F 47% 29.90 in 10.0 mi WNW 20.7 mph - N/A   Clear
3:55 AM 32.9 °F 21.6 °F 15.6 °F 49% 29.91 in 10.0 mi WNW 18.4 mph - N/A   Clear
4:15 AM 32.2 °F 21.1 °F 15.6 °F 51% 29.91 in 10.0 mi WNW 17.3 mph - N/A   Clear
4:35 AM 31.5 °F 20.5 °F 15.4 °F 52% 29.92 in 10.0 mi WNW 16.1 mph - N/A   Clear
4:55 AM 30.2 °F 20.2 °F 15.4 °F 54% 29.92 in 10.0 mi WNW 12.7 mph - N/A   Clear
5:15 AM 29.3 °F 18.2 °F 15.4 °F 56% 29.92 in 10.0 mi WNW 15.0 mph - N/A   Clear
5:35 AM 29.3 °F 19.1 °F 14.9 °F 55% 29.92 in 10.0 mi West 12.7 mph - N/A   Clear
5:55 AM 30.0 °F 17.9 °F 15.1 °F 54% 29.93 in 10.0 mi WNW 18.4 mph - N/A   Clear
6:15 AM 27.9 °F 17.3 °F 14.9 °F 58% 29.95 in 10.0 mi WNW 12.7 mph - N/A   Clear
6:35 AM 26.6 °F 15.7 °F 14.9 °F 61% 29.96 in 10.0 mi WNW 12.7 mph - N/A   Clear
6:55 AM 25.3 °F 15.3 °F 14.5 °F 64% 29.96 in 10.0 mi West 10.4 mph - N/A   Clear
7:15 AM 24.6 °F 13.8 °F 14.9 °F 67% 29.96 in 10.0 mi WNW 11.5 mph - N/A   Clear
7:35 AM 25.5 °F 15.5 °F 14.7 °F 64% 29.97 in 10.0 mi WNW 10.4 mph - N/A   Clear
7:55 AM 25.5 °F 14.9 °F 14.9 °F 64% 29.98 in 10.0 mi WNW 11.5 mph - N/A   Clear
8:15 AM 27.0 °F 15.6 °F 14.9 °F 60% 29.98 in 10.0 mi WNW 13.8 mph - N/A   Clear
8:35 AM 28.9 °F 18.6 °F 14.9 °F 56% 29.99 in 10.0 mi WNW 12.7 mph - N/A   Clear
9:15 AM 31.3 °F 21.1 °F 15.4 °F 52% 29.99 in 10.0 mi WNW 13.8 mph - N/A   Clear
9:35 AM 33.1 °F 23.9 °F 15.8 °F 49% 30.00 in 10.0 mi WNW 12.7 mph - N/A   Clear
9:55 AM 36.7 °F 27.2 °F 14.2 °F 40% 29.99 in 10.0 mi NW 16.1 mph 21.9 mph N/A   Clear
10:15 AM 39.0 °F 30.3 °F 13.5 °F 35% 30.00 in 10.0 mi NW 16.1 mph 20.7 mph N/A   Clear
10:35 AM 40.1 °F 32.4 °F 12.9 °F 33% 30.00 in 10.0 mi NW 13.8 mph - N/A   Clear
10:55 AM 41.4 °F 33.6 °F 13.1 °F 32% 30.00 in 10.0 mi NW 15.0 mph - N/A   Clear
11:15 AM 41.7 °F 34.4 °F 13.1 °F 31% 30.01 in 10.0 mi NNW 13.8 mph - N/A   Clear
11:55 AM 43.7 °F 39.1 °F 11.3 °F 27% 30.02 in 10.0 mi NW 8.1 mph - N/A   Clear
12:15 PM 44.4 °F 38.6 °F 10.9 °F 26% 30.02 in 10.0 mi WNW 11.5 mph 18.4 mph N/A   Clear
12:35 PM 44.8 °F 38.0 °F 10.2 °F 25% 30.02 in 10.0 mi NW 15.0 mph 19.6 mph N/A   Clear
12:55 PM 44.8 °F 39.9 °F 9.7 °F 24% 30.01 in 10.0 mi NNW 9.2 mph 18.4 mph N/A   Clear
1:15 PM 45.7 °F 39.8 °F 9.0 °F 22% 30.01 in 10.0 mi NNW 12.7 mph 16.1 mph N/A   Clear
1:35 PM 46.0 °F 41.0 °F 7.9 °F 21% 30.01 in 10.0 mi NNW 10.4 mph - N/A   Clear
1:55 PM 47.5 °F - 6.3 °F 19% 30.00 in 10.0 mi NW 10.4 mph 17.3 mph N/A   Clear
2:15 PM 47.3 °F - 7.7 °F 20% 29.99 in 10.0 mi NNW 13.8 mph - N/A   Clear
2:35 PM 47.7 °F - 9.5 °F 21% 29.98 in 10.0 mi NW 10.4 mph 16.1 mph N/A   Clear
2:55 PM 48.2 °F - 8.6 °F 20% 29.98 in 10.0 mi NW 8.1 mph 18.4 mph N/A   Clear
3:15 PM 48.4 °F - 9.5 °F 21% 29.98 in 10.0 mi NW 13.8 mph 18.4 mph N/A   Clear
3:35 PM 48.9 °F - 9.1 °F 20% 29.98 in 10.0 mi WNW 12.7 mph 20.7 mph N/A   Clear
3:55 PM 48.7 °F - 9.5 °F 21% 29.98 in 10.0 mi WNW 15.0 mph - N/A   Clear
4:15 PM 48.2 °F - 11.3 °F 23% 29.98 in 10.0 mi NW 10.4 mph - N/A   Clear
4:35 PM 47.1 °F - 11.7 °F 24% 29.98 in 10.0 mi NNW 8.1 mph - N/A   Clear
4:55 PM 45.9 °F 40.0 °F 12.2 °F 26% 29.98 in 10.0 mi NNW 12.7 mph - N/A   Clear
5:15 PM 43.0 °F 38.2 °F 12.0 °F 28% 29.98 in 10.0 mi North 8.1 mph - N/A   Clear
5:35 PM 40.6 °F 36.0 °F 12.2 °F 31% 29.98 in 10.0 mi North 6.9 mph - N/A   Clear
5:55 PM 37.9 °F 34.4 °F 11.1 °F 33% 29.99 in 10.0 mi North 4.6 mph - N/A   Clear
6:15 PM 37.4 °F - 11.3 °F 34% 29.99 in 10.0 mi Calm Calm - N/A   Clear
6:35 PM 34.0 °F 29.8 °F 10.8 °F 38% 30.00 in 10.0 mi North 4.6 mph - N/A   Clear
7:15 PM 30.4 °F - 10.0 °F 43% 30.02 in 10.0 mi Calm Calm - N/A   Clear
7:35 PM 29.7 °F 26.1 °F 10.4 °F 45% 30.03 in 10.0 mi West 3.5 mph - N/A   Clear
7:55 PM 28.4 °F 24.6 °F 10.6 °F 47% 30.04 in 10.0 mi NW 3.5 mph - N/A   Clear
8:15 PM 28.6 °F 24.8 °F 11.3 °F 48% 30.05 in 10.0 mi West 3.5 mph - N/A   Clear
8:35 PM 27.3 °F 23.4 °F 11.1 °F 51% 30.05 in 10.0 mi West 3.5 mph - N/A   Clear
8:55 PM 27.5 °F - 11.3 °F 51% 30.06 in 10.0 mi Calm Calm - N/A   Clear
9:15 PM 25.3 °F 16.7 °F 11.8 °F 57% 30.06 in 10.0 mi SSW 8.1 mph - N/A   Clear
9:35 PM 25.7 °F 19.0 °F 11.8 °F 56% 30.07 in 10.0 mi SSW 5.8 mph - N/A   Clear
9:55 PM 25.2 °F 19.5 °F 11.5 °F 56% 30.07 in 10.0 mi SW 4.6 mph - N/A   Clear
10:15 PM 26.6 °F 22.6 °F 12.0 °F 54% 30.06 in 10.0 mi WSW 3.5 mph - N/A   Clear
10:35 PM 25.3 °F 21.1 °F 12.0 °F 57% 30.06 in 10.0 mi WSW 3.5 mph - N/A   Clear
10:55 PM 26.6 °F 22.6 °F 12.9 °F 56% 30.06 in 10.0 mi West 3.5 mph - N/A   Clear
11:15 PM 24.6 °F 20.3 °F 12.7 °F 61% 30.06 in 10.0 mi WSW 3.5 mph - N/A   Clear
11:35 PM 25.2 °F 19.5 °F 12.7 °F 59% 30.06 in 10.0 mi SW 4.6 mph - N/A   Clear
11:55 PM 25.5 °F 19.9 °F 13.5 °F 60% 30.06 in 10.0 mi West 4.6 mph - N/A   Clear